Rosario, Argentina

4:38 PM America en Abril 25, 2018 (GMT +0000)
Rosario

Tiempo Historia de SAAR - Abril, 2018

Change the Weather History Date:

Martes, Abril 17, 2018

  Actual Average Record
Temperature  
Temperatura media 74 ° F -  
Temperatura máxima 85 ° F 71 ° F 89 ° F (2007)
Temperatura mínima 62 ° F 50 ° F 33 ° F (1999)
Cooling Degree Days 8    
Growing Degree Days 24 (Base 50)    
Moisture  
Punto de rocío 65 ° F    
Average Humidity 75    
Maximum Humidity 94    
Minimum Humidity 51    
Precipitación  
Precipitación 0.00 pul 0.08 pul - ()
Presión al nivel del mar  
Presión al nivel del mar 30.02 pul    
Viento  
Velocidad del viento 5 mph ()    
Velocidad máxima del viento 12 mph    
Max Gust Speed -    
Visibilidad 7.1 Millas    
Eventos Niebla    
Averages and records for this station are not official NWS values.
T = Trace of Precipitation, MM = Missing Value Source: Averaged Metar Reports

Daily Weather History Graph

Daily Weather History Graph

Search for Another Location

Airport or City:

Astronomía

Apr. 17, 2018 Salida Puesta
Hora real 7:26 AM -03 6:38 PM -03
Crepúsculo civil 7:01 AM -03 7:03 PM -03
Crepúsculo náutico 6:32 AM -03 7:32 PM -03
Crepúsculo astronómico 6:03 AM -03 8:01 PM -03
Luna 8:52 AM -03 (4/17) 8:07 PM -03 (4/17)
Horas de luz 12h 02m
Horas de luz
11h 12m
Creciente, 3% of the Moon is Illuminated
Abr 17
Creciente
Abr 22
Cuarto creciente
Abr 29
Luna llena
May 7
Cuarto menguante
May 15
Nueva

Hourly Weather History & Observations

Hora (-03) Temp. Índice de calor Punto de rocío Humedad Presión Visibilidad Wind Dir Velocidad del viento Velocidad de ráfagas Precip Eventos Condiciones
12:00 AM 68 ° F - 61 ° F 71% 30.04 pul 7 mi NNE 3.5 mph - -   Despejado
12:00 AM 68.0 ° F - 60.8 ° F 78% 30.04 pul - NNE 3.5 mph - N/A   Despejado
1:00 AM 66.2 ° F - 59.0 ° F 78% 30.04 pul - NE 6.9 mph - N/A   Despejado
2:00 AM 66.2 ° F - 60.8 ° F 83% 30.04 pul - NNE 4.6 mph - N/A   Despejado
3:00 AM 64 ° F - 61 ° F 87% 30.03 pul 7 mi Sin viento Sin viento - -   Despejado
3:00 AM 64.4 ° F - 60.8 ° F 88% 30.04 pul - Sin viento Sin viento - N/A   Despejado
4:00 AM 64.4 ° F - 62.6 ° F 94% 30.01 pul - Sin viento Sin viento - N/A   Despejado
5:00 AM 64.4 ° F - 62.6 ° F 94% 30.01 pul 5.6 mi Este 3.5 mph - N/A Niebla Niebla
6:00 AM 66 ° F - 64 ° F 90% 30.02 pul 6 mi ENE 3.5 mph - - Niebla Poca niebla
6:00 AM 66.2 ° F - 64.4 ° F 94% 30.01 pul 5.6 mi ENE 3.5 mph - N/A   Desconocido
7:00 AM 66.2 ° F - 64.4 ° F 94% 30.04 pul - NE 6.9 mph - N/A   Despejado
8:00 AM 66.2 ° F - 64.4 ° F 94% 30.04 pul - ENE 4.6 mph - N/A   Despejado
9:00 AM 69 ° F - 66 ° F 86% 30.06 pul 9 mi NE 8.1 mph - -   Parcialmente nublado
9:00 AM 69.8 ° F - 66.2 ° F 88% 30.04 pul - NE 8.1 mph - N/A   Despejado
10:00 AM 73.4 ° F - 66.2 ° F 78% 30.06 pul - Norte 6.9 mph - N/A   Despejado
11:00 AM 77.0 ° F - 68.0 ° F 74% 30.06 pul - Norte 11.5 mph - N/A   Despejado
12:00 PM 81 ° F - 68 ° F 56% 30.06 pul 9 mi Norte 11.5 mph - -   Despejado
12:00 PM 80.6 ° F 83.2 ° F 68.0 ° F 65% 30.06 pul - Norte 11.5 mph - N/A   Despejado
1:00 PM 84.2 ° F 86.6 ° F 66.2 ° F 55% 30.04 pul - NO 11.5 mph - N/A   Despejado
2:00 PM 84.2 ° F 87.3 ° F 68.0 ° F 58% 30.01 pul - NNE 9.2 mph - N/A   Despejado
3:00 PM 84.2 ° F 87.3 ° F 68.0 ° F 58% 29.98 pul 6.2 mi NNE 9.2 mph - N/A   Parcialmente nublado
4:00 PM 86.0 ° F 88.2 ° F 66.2 ° F 51% 29.98 pul 6.2 mi NE 11.5 mph - N/A   Parcialmente nublado
5:00 PM 84.2 ° F 86.6 ° F 66.2 ° F 55% 29.98 pul 6.2 mi NNE 11.5 mph - N/A   Parcialmente nublado
6:00 PM 82 ° F - 67 ° F 51% 29.99 pul 9 mi NE 6.9 mph - -   Nubes dispersas
6:00 PM 82.4 ° F 84.6 ° F 66.2 ° F 58% 29.98 pul - NE 6.9 mph - N/A   Despejado
7:00 PM 77.0 ° F - 68.0 ° F 74% 29.98 pul - NE 4.6 mph - N/A   Despejado
8:00 PM 77.0 ° F - 68.0 ° F 74% 29.98 pul - ENE 6.9 mph - N/A   Despejado
9:00 PM 76 ° F - 66 ° F 63% 30.01 pul 9 mi ENE 6.9 mph - -   Nubes dispersas
9:00 PM 75.2 ° F - 66.2 ° F 73% 30.01 pul - ENE 6.9 mph - N/A   Despejado
10:00 PM 73.4 ° F - 68.0 ° F 83% 30.01 pul - ENE 5.8 mph - N/A   Despejado
11:00 PM 73.4 ° F - 66.2 ° F 78% 30.01 pul - NE 5.8 mph - N/A   Despejado